OEDCL LOGO-LOLH

Flight info

Callsign OEDCL
Flight time 0h 18m
Altitude 5000
Route DCT
Aircraft C172/L-SFG/C

Departure

Time 2026-05-05 18:37
Airport Niederöblarn Airfield (LOGO)

Arrival

Time 2026-05-05 18:55
Airport Hofkirchen Airfield (LOLH)
Time Latitude Longitude Altitude Speed Heading
2026-05-05 18:36 47.75014 13.98069 6663 ft 125 kts
2026-05-05 18:37 47.75878 13.98234 6633 ft 127 kts 11°
2026-05-05 18:37 47.76711 13.98625 6628 ft 124 kts 17°
2026-05-05 18:37 47.77542 13.98887 6570 ft 123 kts 352°
2026-05-05 18:37 47.78311 13.98418 6540 ft 117 kts 321°
2026-05-05 18:38 47.78946 13.97690 6538 ft 116 kts 319°
2026-05-05 18:38 47.79579 13.96940 6501 ft 116 kts 319°
2026-05-05 18:38 47.80244 13.96241 6504 ft 120 kts 328°
2026-05-05 18:38 47.80965 13.95700 6580 ft 115 kts 330°
2026-05-05 18:39 47.81699 13.95174 6533 ft 118 kts 329°
2026-05-05 18:39 47.82412 13.94594 6499 ft 116 kts 328°
2026-05-05 18:39 47.83116 13.94001 6414 ft 118 kts 326°
2026-05-05 18:39 47.83889 13.93563 6331 ft 121 kts 348°
2026-05-05 18:40 47.84732 13.93594 6244 ft 123 kts
2026-05-05 18:40 47.85548 13.93949 6174 ft 121 kts 19°
2026-05-05 18:40 47.86313 13.94518 6072 ft 126 kts 31°
2026-05-05 18:40 47.86974 13.95359 6024 ft 126 kts 46°
2026-05-05 18:41 47.87525 13.96360 6026 ft 123 kts 52°
2026-05-05 18:41 47.88037 13.97378 5883 ft 126 kts 51°
2026-05-05 18:41 47.88580 13.98420 5844 ft 125 kts 51°
2026-05-05 18:41 47.89106 13.99390 5778 ft 122 kts 50°
2026-05-05 18:42 47.89662 14.00390 5563 ft 128 kts 48°
2026-05-05 18:42 47.90218 14.01369 5553 ft 120 kts 48°
2026-05-05 18:42 47.90791 14.02329 5394 ft 127 kts 46°
2026-05-05 18:42 47.91375 14.03279 5402 ft 120 kts 46°
2026-05-05 18:43 47.91960 14.04201 5224 ft 128 kts 44°
2026-05-05 18:43 47.92581 14.05115 5185 ft 120 kts 41°
2026-05-05 18:43 47.93036 14.06203 4915 ft 132 kts 64°
2026-05-05 18:43 47.93386 14.07405 4911 ft 121 kts 66°
2026-05-05 18:44 47.93729 14.08574 4804 ft 125 kts 64°
2026-05-05 18:44 47.94113 14.09734 4751 ft 124 kts 61°
2026-05-05 18:44 47.94552 14.10827 4670 ft 124 kts 55°
2026-05-05 18:44 47.95049 14.11870 4636 ft 121 kts 50°
2026-05-05 18:45 47.95572 14.12836 4551 ft 123 kts 48°
2026-05-05 18:45 47.96132 14.13799 4507 ft 122 kts 46°
2026-05-05 18:45 47.96705 14.14740 4458 ft 122 kts 44°
2026-05-05 18:45 47.97293 14.15618 4436 ft 120 kts 42°
2026-05-05 18:46 47.97910 14.16505 4323 ft 123 kts 44°
2026-05-05 18:46 47.98464 14.17445 4296 ft 121 kts 46°
2026-05-05 18:46 47.99046 14.18373 4189 ft 121 kts 43°
2026-05-05 18:46 47.99630 14.19304 4086 ft 123 kts 44°
2026-05-05 18:47 48.00232 14.20190 3991 ft 122 kts 40°
2026-05-05 18:47 48.00851 14.21041 3946 ft 121 kts 41°
2026-05-05 18:47 48.01454 14.21946 3899 ft 122 kts 44°
2026-05-05 18:47 48.02016 14.22892 3849 ft 122 kts 46°
2026-05-05 18:48 48.02588 14.23797 3801 ft 122 kts 42°
2026-05-05 18:48 48.03137 14.24771 3709 ft 125 kts 56°
2026-05-05 18:48 48.03394 14.26035 3608 ft 126 kts 81°
2026-05-05 18:48 48.03514 14.27308 3574 ft 124 kts 80°
2026-05-05 18:49 48.03720 14.28561 3522 ft 124 kts 69°
2026-05-05 18:49 48.04120 14.29689 3470 ft 123 kts 51°
2026-05-05 18:49 48.04712 14.30577 3425 ft 118 kts 34°
2026-05-05 18:49 48.05364 14.31276 3305 ft 116 kts 25°
2026-05-05 18:50 48.06096 14.31809 3138 ft 116 kts 19°
2026-05-05 18:50 48.06776 14.32238 3067 ft 108 kts 17°
2026-05-05 18:50 48.07405 14.32670 2997 ft 95 kts 21°
2026-05-05 18:50 48.08002 14.33210 2794 ft 103 kts 28°
2026-05-05 18:51 48.08568 14.33780 2695 ft 98 kts 24°
2026-05-05 18:51 48.09140 14.34373 2533 ft 98 kts 27°
2026-05-05 18:51 48.09690 14.34929 2392 ft 96 kts 25°
2026-05-05 18:51 48.10235 14.35494 2273 ft 95 kts 27°
2026-05-05 18:52 48.10777 14.36041 2089 ft 97 kts 26°
2026-05-05 18:52 48.11357 14.36549 1938 ft 93 kts 39°
2026-05-05 18:52 48.11700 14.37334 1787 ft 82 kts 39°
2026-05-05 18:52 48.12220 14.37528 1643 ft 79 kts 348°
2026-05-05 18:53 48.12733 14.37430 1592 ft 72 kts 346°
2026-05-05 18:53 48.13219 14.37276 1549 ft 72 kts 340°
2026-05-05 18:53 48.13665 14.36998 1552 ft 70 kts 314°
2026-05-05 18:53 48.13976 14.36463 1553 ft 64 kts 304°
2026-05-05 18:54 48.14104 14.35866 1496 ft 62 kts 273°
2026-05-05 18:54 48.14075 14.35216 1403 ft 62 kts 264°
2026-05-05 18:54 48.14020 14.34602 1323 ft 58 kts 263°
2026-05-05 18:54 48.13959 14.34026 1200 ft 54 kts 263°
2026-05-05 18:55 48.13908 14.33554 1187 ft 47 kts 260°
2026-05-05 18:55 48.13840 14.32968 1327 ft 60 kts 260°
2026-05-05 18:55 48.13784 14.32356 1542 ft 58 kts 259°
2026-05-05 18:55 48.13726 14.31761 1666 ft 64 kts 261°
2026-05-05 18:56 48.13669 14.31058 1767 ft 71 kts 266°
2026-05-05 18:56 48.13594 14.30310 1832 ft 73 kts 266°
2026-05-05 18:56 48.13417 14.29578 1898 ft 87 kts 227°
2026-05-05 18:56 48.12821 14.29382 2111 ft 92 kts 171°
2026-05-05 18:57 48.12165 14.29662 2190 ft 103 kts 169°
2026-05-05 18:57 48.11467 14.29948 2279 ft 106 kts 176°
2026-05-05 18:57 48.10746 14.30300 2347 ft 114 kts 151°
2026-05-05 18:57 48.10421 14.31392 2307 ft 120 kts 72°
2026-05-05 18:58 48.10687 14.32520 2377 ft 110 kts 61°
2026-05-05 18:58 48.10931 14.33624 2350 ft 114 kts 76°
2026-05-05 18:58 48.11056 14.34750 2383 ft 110 kts 73°
2026-05-05 18:58 48.11199 14.35848 2398 ft 104 kts 71°
2026-05-05 18:59 48.11383 14.36873 2350 ft 101 kts 59°
2026-05-05 18:59 48.11866 14.37484 2245 ft 90 kts
2026-05-05 18:59 48.12454 14.37491 2168 ft 80 kts 347°
2026-05-05 18:59 48.12992 14.37420 2079 ft 73 kts 349°
2026-05-05 19:00 48.13518 14.37360 1881 ft 80 kts 345°
2026-05-05 19:00 48.14030 14.37177 1809 ft 72 kts 327°
2026-05-05 19:00 48.14285 14.36593 1608 ft 72 kts 264°
2026-05-05 19:00 48.14172 14.35899 1557 ft 66 kts 260°
2026-05-05 19:01 48.14096 14.35234 1429 ft 63 kts 262°
2026-05-05 19:01 48.14026 14.34619 1318 ft 59 kts 263°
2026-05-05 19:01 48.13949 14.33990 1189 ft 63 kts 267°
2026-05-05 19:01 48.13899 14.33463 1187 ft 46 kts 259°
2026-05-05 19:02 48.13818 14.32847 1249 ft 70 kts 263°
2026-05-05 19:02 48.13665 14.32092 1354 ft 83 kts 261°
2026-05-05 19:02 48.13585 14.31234 1550 ft 82 kts 267°
2026-05-05 19:02 48.13434 14.30382 1674 ft 88 kts 255°
2026-05-05 19:03 48.12983 14.29697 1874 ft 101 kts 202°
2026-05-05 19:03 48.12248 14.29711 2028 ft 109 kts 175°
2026-05-05 19:03 48.11490 14.29923 2024 ft 114 kts 178°
2026-05-05 19:03 48.10748 14.30297 1956 ft 114 kts 138°
2026-05-05 19:04 48.10550 14.31360 1887 ft 108 kts 76°
2026-05-05 19:04 48.10691 14.32445 1914 ft 108 kts 71°
2026-05-05 19:04 48.10888 14.33507 1958 ft 104 kts 68°
2026-05-05 19:04 48.11152 14.34562 1879 ft 109 kts 68°
2026-05-05 19:05 48.11395 14.35642 1874 ft 111 kts 76°
2026-05-05 19:05 48.11489 14.36760 1858 ft 105 kts 81°
2026-05-05 19:05 48.11859 14.37564 1775 ft 95 kts
2026-05-05 19:05 48.12495 14.37674 1728 ft 87 kts 353°
2026-05-05 19:06 48.13103 14.37558 1586 ft 88 kts 350°
2026-05-05 19:06 48.13637 14.37412 1495 ft 73 kts 330°
2026-05-05 19:06 48.14005 14.36914 1428 ft 72 kts 304°
2026-05-05 19:06 48.14131 14.36174 1382 ft 77 kts 281°
2026-05-05 19:07 48.14112 14.35363 1344 ft 80 kts 266°
2026-05-05 19:07 48.14017 14.34546 1294 ft 74 kts 266°
2026-05-05 19:07 48.13939 14.33871 1187 ft 63 kts 266°
2026-05-05 19:07 48.13879 14.33297 1187 ft 62 kts 261°
2026-05-05 19:08 48.13782 14.32569 1301 ft 74 kts 267°
2026-05-05 19:08 48.13658 14.31806 1512 ft 75 kts 262°
2026-05-05 19:08 48.13577 14.30994 1670 ft 80 kts 272°
2026-05-05 19:08 48.13536 14.30232 1899 ft 64 kts 271°
2026-05-05 19:09 48.13481 14.29587 1993 ft 66 kts 266°
2026-05-05 19:09 48.13445 14.28761 2006 ft 92 kts 270°
2026-05-05 19:09 48.13419 14.27725 2007 ft 108 kts 271°
2026-05-05 19:09 48.13391 14.26577 2011 ft 113 kts 270°
2026-05-05 19:10 48.13348 14.25388 2001 ft 115 kts 270°
2026-05-05 19:10 48.13297 14.24195 1993 ft 116 kts 270°
2026-05-05 19:10 48.13263 14.22970 1993 ft 118 kts 272°
2026-05-05 19:10 48.13276 14.21788 1975 ft 108 kts 281°
2026-05-05 19:11 48.13412 14.20712 1993 ft 106 kts 282°
2026-05-05 19:11 48.13541 14.19597 1995 ft 111 kts 283°
2026-05-05 19:11 48.13700 14.18461 1997 ft 113 kts 298°
2026-05-05 19:11 48.14170 14.17474 1995 ft 119 kts 306°
2026-05-05 19:12 48.14659 14.16490 1999 ft 121 kts 308°
2026-05-05 19:12 48.15155 14.15471 1996 ft 120 kts 306°
2026-05-05 19:12 48.15651 14.14469 1990 ft 120 kts 305°
2026-05-05 19:12 48.16172 14.13499 1986 ft 119 kts 307°
2026-05-05 19:13 48.16688 14.12509 1991 ft 121 kts 307°
2026-05-05 19:13 48.17190 14.11545 1985 ft 111 kts 307°
2026-05-05 19:13 48.17646 14.10725 1937 ft 95 kts 310°
2026-05-05 19:13 48.18049 14.10061 1939 ft 78 kts 312°
2026-05-05 19:14 48.18356 14.09449 1809 ft 74 kts 289°
2026-05-05 19:14 48.18324 14.08660 1563 ft 77 kts 282°
2026-05-05 19:14 48.18411 14.07881 1431 ft 76 kts 287°
2026-05-05 19:14 48.18447 14.07134 1475 ft 71 kts 277°
2026-05-05 19:15 48.18437 14.06394 1433 ft 69 kts 279°
2026-05-05 19:15 48.18412 14.05690 1274 ft 65 kts 277°
2026-05-05 19:15 48.18406 14.05021 1101 ft 62 kts 277°
2026-05-05 19:15 48.18397 14.04450 1042 ft 45 kts 275°
2026-05-05 19:16 48.18394 14.04172 1045 ft 0 kts 265°